Location: Casco Millpond
(44.5581°N, 87.6111°W)
Time: 22:12:55
(UTC+00:00)

Cosmos 1959 Rocket - Pass Details

Date: 16 January 2026
Orbit: 946 x 996 km, 83.0° (Epoch: 10 February)

Event Time Altitude Azimuth Distance (km) Brightness Sun altitude
Rises 23:20:15 0° 353° (N) 3,629 7.3 -7.6°
Reaches altitude 10° 23:22:45 10° 356° (N) 2,682 6.6 -8.1°
Maximum altitude 23:28:52 70° 80° (E) 1,015 4.4 -9.1°
Drops below altitude 10° 23:34:59 10° 164° (SSE) 2,688 6.9 -10.1°
Sets 23:37:30 0° 167° (SSE) 3,638 7.6 -10.5°
